ATLAS 5 CENTAUR DEB, 44658

Orbit data source: Space-Track

ATLAS 5 CENTAUR DEB, 44658 is space debris in HEO originally from a launch on Wed, 17 Oct 2018 UTC launched from the Air Force Eastern Test Range (AFETR). Debris objects in space refer to the collection of defunct objects orbiting the Earth. Examples of debris include non-operational satellites, rocket bodies, and fragments generated from explosions, collisions, or faulty payload assembly.

Loading next visibility...
Identifier
44658, 2018-079U
Orbit
HEO
Country
Flag of USUS
Related business
Flag of USUnited Launch Alliance/Lockheed Martin (US)
Manufacturer
ULA Decatur
Mission
Spacecraft
Bus & Motor
Unknown
Mass
Unknown
Launch date (UTC)
2018-10-17 (8 years ago)
Launch vehicle
Unknown
Launch site
Air Force Eastern Test Range (AFETR)
Object type
Payload
Rocket body
Debris
Shape & HBR
Unknown shape, 1.1 m
Radar Cross Section
RCS unknown

Expand to show TLE details & history
Last TLE update: 2 days ago

TLE from 2 days ago
0 ATLAS 5 CENTAUR DEB
1 44658U 18079U   26126.20884956 -.00000130  00000-0  00000-0 0  9996
2 44658  13.6709  33.0099 4705316 313.8450  15.8590  1.81745968 46231
Epoch: 2026-05-06T05:00Z
TLE epoch observation values (Epoch: 2026-05-06T05:00:44.601Z)
Latitude
0.00002°
Longitude
93.69887°
Altitude
10,284.428 km
Speed
5.813 km/s
True Right ascension
02h 11m 49s
True Declination
0° 00' 00"
Sunlit
Object was in daylight at epoch
Visualization orbit readout
Latitude
Unknown
Longitude
Unknown
Altitude
Unknown
Speed
Unknown
Apparent Right ascension
Unknown
Apparent Declination
Unknown
Sunlit
N/A
Visualization observer readout
Local Sidereal Time
15:00:55
Azimuth
Unknown
Elevation
Unknown
Doppler factor
Unknown
Orbital elements
Apogee altitude
35,334.245 km
Perigee altitude
8,640.505 km
Semi-major axis
28,365.512 km
Eccentricity
0.47053
Inclination
13.6709°
RAAN
33.0099°
Arg. of periapsis
313.845°
True anomaly
46.45137°
Mean anomaly
15.859°
Eccentric anomaly
28.87966°
Mean motion
0.45432 °/min
Orbital period
792.4 mins
BSTAR
0
Loading maneuver chart data...
Computing Atmospheric mass density...

Documentation

Showing up to 5 results
|